Location: *
(41.0833°N, 73.4167°W)
Time: 20:43:44
(UTC+00:00)

Cosmos 1953 - Pass Details

Date: 22 October 2019
Orbit: 538 x 559 km, 82.5° (Epoch: 21 November)

Event Time Altitude Azimuth Distance (km) Brightness Sun altitude
Exits shadow 09:32:46 36° 214° (SSW) 866 3.0 -19.5°
Drops below altitude 10° 09:35:23 10° 190° (S) 1,803 4.8 -19.0°
Sets 09:37:34 0° 185° (S) 2,687 5.8 -18.6°
